Flag for Canada Weather past 2 weeks in Nanaimo, British Columbia, Canada

Now
50 °F

Cool.


Feels Like: 46 °F
Forecast: 45 / 51 °F
Wind: 10 mph from Southeast

Location: Entrance Island

Current Time: Jan 25, 2015 at 2:59:26 PM

Latest Report: Jan 25, 2015 at 2:00 PM


Visibility: N/A

Pressure: 30.12 "Hg

Humidity: 89%

Dew point: 47 °F

Location of NanaimoLocation

Historic Weather in Nanaimo — Graph

°F

Nanaimo temperature yesterday

Maximum temperature yesterday: 49 °F (at 2:00 AM)
Minimum temperature yesterday: 47 °F (at 7:00 AM)
Average temperature yesterday: 48 °F

Past Weeks' High & Low Weather Summary

 TemperatureHumidityPressure
High54 °F (Jan 18, 11:00 AM)100% (Jan 11, 7:00 PM)30.50 "Hg (Jan 11, 7:00 PM)
Low38 °F (Jan 14, 8:00 PM)50% (Jan 18, 11:00 AM)29.43 "Hg (Jan 18, 2:00 AM)
Average45 °F87%30.18 "Hg
* Reported Jan 10 2:00 PM — Jan 25 2:00 PM, Nanaimo, Weather by CustomWeather, © 2014

Note: Actual official high and low records may vary slightly from our data, if they occured in-between our weather recording intervals... More about our weather records

Advertising

Nanaimo weather history for previous 24 hours

 ConditionsComfort  
Time TempWeatherWind HumidityBarometerVisibility
2:00 PM
Jan 25
50 °FCool.10 mph89%30.12 "HgN/A
1:00 PM49 °FCool.12 mph90%30.13 "HgN/A
12:00 PM49 °FCool.13 mph90%30.14 "HgN/A
11:00 AM49 °FCool.13 mph90%30.16 "HgN/A
10:00 AM49 °FCool.10 mph91%30.15 "HgN/A
9:00 AM48 °FCool.17 mph92%30.14 "HgN/A
8:00 AM47 °FCool.18 mph92%30.14 "HgN/A
7:00 AM48 °FCool.18 mph90%30.13 "HgN/A
6:00 AM48 °FCool.14 mph91%30.14 "HgN/A
5:00 AM49 °FCool.15 mph91%30.14 "HgN/A
4:00 AM48 °FCool.15 mph93%30.14 "HgN/A
3:00 AM49 °FCool.14 mph92%30.15 "HgN/A
2:00 AM48 °FCool.16 mph90%30.13 "HgN/A
1:00 AM51 °FCool.2 mph92%30.15 "HgN/A
12:00 AM51 °FCool.12 mph92%30.15 "HgN/A
11:00 PM
Jan 24
49 °FCool.2 mph88%30.16 "HgN/A
10:00 PM49 °FCool.1 mph94%30.14 "HgN/A
9:00 PM48 °FCool.3 mph94%30.16 "HgN/A
8:00 PM48 °FCool.9 mph94%30.13 "HgN/A
7:00 PM49 °FCool.12 mph93%30.15 "HgN/A
6:00 PM49 °FCool.14 mph87%30.15 "HgN/A
5:00 PM49 °FCool.16 mph94%30.16 "HgN/A
4:00 PM47 °FCool.17 mph94%30.16 "HgN/A
3:00 PM49 °FCool.16 mph94%30.17 "HgN/A
2:00 PM49 °FCool.14 mph94%30.19 "HgN/A
Weather by CustomWeather, © 2014

See weather overviewHow to use our weather pages